{"data":{"norad_id":61547,"intl_designator":"2024-184R","name":"STARLINK-32411","alt_names":[],"object_type":"PAYLOAD","status":"ACTIVE","operator":null,"country":"US","launch_date":"2024-10-15","launch_site_code":"AFWTR","launch_vehicle":null,"mission":null,"orbit_class":"UNKNOWN","rcs_meters":null,"size_class":null,"mass_kg":null,"dimensions":null,"purposes":["comms"],"wikipedia_slug":null,"has_3d_model":false,"image_url":null,"decayed_at":null,"tle_current":{"epoch":"2026-09-21T06:23:52.696032Z","epoch_age_seconds":125901,"freshness":"FRESH","line1":"1 61547U 24184R   26264.26658213  .00000189  00000+0  16723-4 0  9995","line2":"2 61547  53.1597 182.4630 0001155  60.9450 299.1668 15.34399322108499","mean_motion":15.34399322,"eccentricity":0.0001155,"inclination_deg":53.1597,"raan_deg":182.463,"arg_perigee_deg":60.945,"mean_anomaly_deg":299.1668,"bstar":1.6723e-5,"rev_number":10849,"period_min":93.847799549536,"perigee_km":461.91513808623,"apogee_km":463.49537264722,"semimajor_km":6840.8422553667,"source":"CELESTRAK","updated_at":"2026-09-22T09:00:49.367491Z"}}}